• In Österreich
  • Länderverzeichnis
  • Für 7 Tage
  • Wassertemperatur
  • Satellitenkarten
  • Wetterkarte
  • News
  • Widgets
  • user-avatar
    Anmelden

    Stündliche Wetter Sulęcin

    Heute, 20 September, Donnerstag

    Zeit Temperatur Niederschläge Wind Luftdruck Luftfeuchtigkeit
    00:00 +20°C° 0.1 mm 2 m/S 754 mmHg 72%
    01:00 +20°C° 0 mm 3 m/S 754 mmHg 66%
    02:00 +20°C° 0 mm 2 m/S 754 mmHg 69%
    03:00 +19°C° 0 mm 2 m/S 754 mmHg 71%
    04:00 +19°C° 0 mm 2 m/S 754 mmHg 74%
    05:00 +19°C° 0 mm 2 m/S 754 mmHg 74%
    06:00 +19°C° 0 mm 2 m/S 755 mmHg 74%
    07:00 +19°C° 0 mm 2 m/S 755 mmHg 75%
    08:00 +21°C° 0 mm 2 m/S 755 mmHg 67%
    09:00 +24°C° 0 mm 2 m/S 755 mmHg 60%
    10:00 +26°C° 0 mm 2 m/S 755 mmHg 53%
    11:00 +27°C° 0 mm 2 m/S 755 mmHg 50%
    12:00 +28°C° 0 mm 3 m/S 755 mmHg 47%
    13:00 +29°C° 0 mm 3 m/S 754 mmHg 44%
    14:00 +29°C° 0 mm 3 m/S 754 mmHg 44%
    15:00 +29°C° 0 mm 3 m/S 754 mmHg 44%
    16:00 +29°C° 0 mm 3 m/S 753 mmHg 44%
    17:00 +28°C° 0 mm 3 m/S 753 mmHg 50%
    18:00 +26°C° 0 mm 2 m/S 753 mmHg 55%
    19:00 +24°C° 0 mm 1 m/S 753 mmHg 61%
    20:00 +24°C° 0 mm 2 m/S 752 mmHg 63%
    21:00 +23°C° 0 mm 2 m/S 752 mmHg 64%
    22:00 +23°C° 0 mm 2 m/S 752 mmHg 66%
    23:00 +21°C° 0 mm 2 m/S 752 mmHg 67%

    Morgen, 21 September, Freitag

    Zeit Temperatur Niederschläge Wind Luftdruck Luftfeuchtigkeit
    00:00 +21°C° 0 mm 3 m/S 752 mmHg 68%
    01:00 +21°C° 0 mm 3 m/S 751 mmHg 68%
    02:00 +20°C° 0 mm 3 m/S 751 mmHg 68%
    03:00 +20°C° 0 mm 3 m/S 751 mmHg 68%
    04:00 +20°C° 0 mm 3 m/S 750 mmHg 68%
    05:00 +20°C° 0 mm 3 m/S 750 mmHg 67%
    06:00 +20°C° 0 mm 4 m/S 750 mmHg 66%
    07:00 +20°C° 0 mm 4 m/S 749 mmHg 65%
    08:00 +23°C° 0 mm 5 m/S 749 mmHg 58%
    09:00 +26°C° 0 mm 5 m/S 748 mmHg 51%
    10:00 +28°C° 0 mm 6 m/S 748 mmHg 44%
    11:00 +29°C° 0 mm 6 m/S 747 mmHg 40%
    12:00 +30°C° 0 mm 7 m/S 746 mmHg 35%
    13:00 +32°C° 0 mm 7 m/S 745 mmHg 31%
    14:00 +30°C° 0 mm 7 m/S 745 mmHg 33%
    15:00 +30°C° 0 mm 7 m/S 745 mmHg 35%
    16:00 +29°C° 0 mm 6 m/S 745 mmHg 38%
    17:00 +24°C° 0.6 mm 6 m/S 746 mmHg 51%
    18:00 +20°C° 0.6 mm 6 m/S 747 mmHg 64%
    19:00 +15°C° 0.6 mm 6 m/S 748 mmHg 77%
    20:00 +15°C° 0.2 mm 6 m/S 749 mmHg 75%
    21:00 +14°C° 0.2 mm 5 m/S 750 mmHg 73%
    22:00 +14°C° 0.2 mm 4 m/S 751 mmHg 71%
    23:00 +13°C° 0 mm 4 m/S 751 mmHg 70%

    übermorgen, 22 September, Samstag

    Zeit Temperatur Niederschläge Wind Luftdruck Luftfeuchtigkeit
    00:00 +12°C° 0 mm 4 m/S 751 mmHg 69%
    01:00 +12°C° 0 mm 4 m/S 752 mmHg 68%
    02:00 +11°C° 0 mm 4 m/S 752 mmHg 66%
    03:00 +10°C° 0 mm 5 m/S 752 mmHg 64%
    04:00 +10°C° 0 mm 5 m/S 752 mmHg 63%
    05:00 +10°C° 0 mm 5 m/S 753 mmHg 63%
    06:00 +10°C° 0 mm 5 m/S 753 mmHg 63%
    07:00 +10°C° 0 mm 6 m/S 754 mmHg 63%
    08:00 +13°C° 0 mm 6 m/S 754 mmHg 59%
    09:00 +14°C° 0 mm 6 m/S 754 mmHg 55%
    10:00 +15°C° 0 mm 6 m/S 755 mmHg 51%
    11:00 +16°C° 0.1 mm 6 m/S 754 mmHg 49%
    12:00 +16°C° 0.1 mm 6 m/S 754 mmHg 47%
    13:00 +17°C° 0.1 mm 6 m/S 754 mmHg 45%
    14:00 +17°C° 0.1 mm 6 m/S 754 mmHg 44%
    15:00 +17°C° 0.1 mm 6 m/S 754 mmHg 43%
    16:00 +17°C° 0.1 mm 6 m/S 754 mmHg 41%
    17:00 +16°C° 0 mm 5 m/S 754 mmHg 44%
    18:00 +15°C° 0 mm 4 m/S 755 mmHg 47%
    19:00 +14°C° 0 mm 3 m/S 755 mmHg 50%
    20:00 +13°C° 0 mm 3 m/S 755 mmHg 53%
    21:00 +12°C° 0 mm 3 m/S 755 mmHg 56%
    22:00 +12°C° 0 mm 3 m/S 755 mmHg 59%
    23:00 +11°C° 0 mm 3 m/S 755 mmHg 61%

    23 September, Sonntag

    Zeit Temperatur Niederschläge Wind Luftdruck Luftfeuchtigkeit
    00:00 +11°C° 0 mm 3 m/S 755 mmHg 62%
    01:00 +11°C° 0 mm 3 m/S 755 mmHg 64%
    02:00 +11°C° 0 mm 3 m/S 755 mmHg 65%
    03:00 +11°C° 0 mm 3 m/S 754 mmHg 66%
    04:00 +10°C° 0 mm 2 m/S 754 mmHg 67%
    05:00 +10°C° 0.1 mm 2 m/S 754 mmHg 70%
    06:00 +10°C° 0.1 mm 3 m/S 754 mmHg 73%
    07:00 +10°C° 0.1 mm 3 m/S 753 mmHg 76%
    08:00 +11°C° 0.2 mm 3 m/S 753 mmHg 76%
    09:00 +11°C° 0.2 mm 3 m/S 753 mmHg 76%
    10:00 +12°C° 0.2 mm 3 m/S 752 mmHg 76%
    11:00 +12°C° 0.3 mm 3 m/S 751 mmHg 76%
    12:00 +12°C° 0.3 mm 3 m/S 750 mmHg 77%
    13:00 +12°C° 0.3 mm 4 m/S 748 mmHg 78%
    14:00 +12°C° 1.9 mm 4 m/S 747 mmHg 82%
    15:00 +12°C° 1.9 mm 4 m/S 746 mmHg 86%
    16:00 +11°C° 1.9 mm 4 m/S 745 mmHg 90%
    17:00 +12°C° 2.7 mm 4 m/S 743 mmHg 91%
    18:00 +13°C° 2.7 mm 5 m/S 741 mmHg 91%
    19:00 +14°C° 2.7 mm 5 m/S 739 mmHg 92%
    20:00 +15°C° 1.6 mm 6 m/S 738 mmHg 90%
    21:00 +16°C° 1.6 mm 8 m/S 737 mmHg 87%
    22:00 +17°C° 1.6 mm 9 m/S 736 mmHg 85%
    23:00 +15°C° 0.4 mm 9 m/S 737 mmHg 85%

    24 September, Montag

    Zeit Temperatur Niederschläge Wind Luftdruck Luftfeuchtigkeit
    00:00 +12°C° 0.4 mm 9 m/S 738 mmHg 86%
    01:00 +10°C° 0.4 mm 9 m/S 739 mmHg 86%
    02:00 +8°C° 0.5 mm 9 m/S 741 mmHg 84%
    03:00 +8°C° 0.5 mm 9 m/S 743 mmHg 81%
    04:00 +7°C° 0.5 mm 9 m/S 745 mmHg 79%
    05:00 +7°C° 0 mm 9 m/S 747 mmHg 79%
    06:00 +7°C° 0 mm 8 m/S 749 mmHg 78%
    07:00 +7°C° 0 mm 8 m/S 750 mmHg 78%
    08:00 +9°C° 0 mm 8 m/S 751 mmHg 72%
    09:00 +10°C° 0 mm 9 m/S 752 mmHg 66%
    10:00 +11°C° 0 mm 9 m/S 753 mmHg 60%
    11:00 +12°C° 0.3 mm 9 m/S 754 mmHg 59%
    12:00 +12°C° 0.3 mm 8 m/S 755 mmHg 58%
    13:00 +12°C° 0.3 mm 8 m/S 755 mmHg 58%
    14:00 +12°C° 0.3 mm 7 m/S 756 mmHg 59%
    15:00 +12°C° 0.3 mm 7 m/S 757 mmHg 60%
    16:00 +11°C° 0.3 mm 6 m/S 758 mmHg 62%
    17:00 +10°C° 0 mm 5 m/S 758 mmHg 64%
    18:00 +9°C° 0 mm 5 m/S 759 mmHg 67%
    19:00 +8°C° 0 mm 4 m/S 759 mmHg 70%
    20:00 +8°C° 0 mm 4 m/S 760 mmHg 70%
    21:00 +8°C° 0 mm 4 m/S 760 mmHg 71%
    22:00 +8°C° 0 mm 4 m/S 761 mmHg 71%
    23:00 +7°C° 0 mm 4 m/S 761 mmHg 72%

    25 September, Dienstag

    Zeit Temperatur Niederschläge Wind Luftdruck Luftfeuchtigkeit
    00:00 +7°C° 0 mm 5 m/S 761 mmHg 73%
    01:00 +7°C° 0 mm 5 m/S 761 mmHg 74%
    02:00 +6°C° 0 mm 5 m/S 761 mmHg 75%
    03:00 +6°C° 0 mm 5 m/S 761 mmHg 77%
    04:00 +6°C° 0 mm 5 m/S 761 mmHg 79%
    05:00 +6°C° 0 mm 5 m/S 761 mmHg 79%
    06:00 +6°C° 0 mm 5 m/S 761 mmHg 79%
    07:00 +6°C° 0 mm 5 m/S 761 mmHg 79%
    08:00 +8°C° 0 mm 6 m/S 761 mmHg 74%
    09:00 +9°C° 0 mm 7 m/S 761 mmHg 69%
    10:00 +11°C° 0 mm 7 m/S 761 mmHg 64%
    11:00 +10°C° 0.9 mm 7 m/S 760 mmHg 69%
    12:00 +10°C° 0.9 mm 7 m/S 760 mmHg 74%
    13:00 +9°C° 0.9 mm 7 m/S 760 mmHg 80%
    14:00 +10°C° 0.2 mm 6 m/S 760 mmHg 74%
    15:00 +11°C° 0.2 mm 6 m/S 760 mmHg 69%
    16:00 +12°C° 0.2 mm 5 m/S 760 mmHg 64%
    17:00 +10°C° 0 mm 5 m/S 761 mmHg 68%
    18:00 +11°C° 0 mm 4 m/S 761 mmHg 73%
    19:00 +10°C° 0 mm 3 m/S 761 mmHg 77%
    20:00 +9°C° 0 mm 3 m/S 762 mmHg 79%
    21:00 +9°C° 0 mm 3 m/S 762 mmHg 82%
    22:00 +9°C° 0 mm 3 m/S 763 mmHg 84%
    23:00 +8°C° 0 mm 3 m/S 763 mmHg 86%
    Mehr zeigen